Northeast Philadelphia, PA

11:51 PM EDT on May 29, 2017 (GMT -0400)
Northeast Philadelphia

Weather History for KPNE - June, 2013

Change the Weather History Date:

Saturday, June 15, 2013

  Actual Average Record
Temperature  
Mean Temperature 69 °F -  
Max Temperature 82 °F 78 °F 90 °F (2015)
Min Temperature 57 °F 59 °F 54 °F (2011)
Cooling Degree Days 4    
Growing Degree Days 19 (Base 50)    
Moisture  
Dew Point 54 °F    
Average Humidity 60    
Maximum Humidity 93    
Minimum Humidity 38    
Precipitation  
Precipitation 0.00 in - - ()
Sea Level Pressure  
Sea Level Pressure 29.99 in    
Wind  
Wind Speed 7 mph (WNW)    
Max Wind Speed 17 mph    
Max Gust Speed 21 mph    
Visibility 10 miles    
Events      
Averages and records for this station are not official NWS values.
T = Trace of Precipitation, MM = Missing Value Source: NWS Daily Summary

Daily Weather History Graph

Daily Weather History Graph

Search for Another Location

Airport or City:

Trip Planner

Search our weather history database for the weather conditions in past years. The results will help you decide how hot, cold, wet, or windy it might be!

Date:

Astronomy

Jun. 15, 2013 Rise Set
Actual Time 5:30 AM EDT 8:30 PM EDT
Civil Twilight 4:57 AM EDT 9:03 PM EDT
Nautical Twilight 4:15 AM EDT 9:45 PM EDT
Astronomical Twilight 3:27 AM EDT 10:34 PM EDT
Moon 12:02 PM EDT (6/15) 12:05 AM EDT (6/15)
Length of Visible Light 16h 06m
Length of Day
15h 00m
Waxing Crescent, 39% of the Moon is Illuminated
Jun 15
Waxing Crescent
Jun 16
First Quarter
Jun 23
Full
Jun 30
Last Quarter
Jul 8
New

Hourly Weather History & Observations

Time (EDT) Temp. Heat Index Dew Point Humidity Pressure Visibility Wind Dir Wind Speed Gust Speed Precip Events Conditions
12:54 AM 57.0 °F - 55.0 °F 93% 29.95 in 10.0 mi WSW 5.8 mph - N/A   Clear
1:54 AM 57.0 °F - 55.0 °F 93% 29.95 in 10.0 mi West 4.6 mph - N/A   Clear
2:54 AM 57.0 °F - 55.0 °F 93% 29.96 in 10.0 mi West 3.5 mph - N/A   Clear
3:54 AM 61.0 °F - 54.0 °F 78% 29.96 in 10.0 mi NW 5.8 mph - N/A   Clear
4:54 AM 60.1 °F - 53.1 °F 78% 29.96 in 10.0 mi WNW 3.5 mph - N/A   Clear
5:54 AM 59.0 °F - 53.1 °F 81% 29.98 in 10.0 mi West 4.6 mph - N/A   Clear
6:54 AM 63.0 °F - 55.0 °F 75% 30.01 in 10.0 mi WNW 6.9 mph - N/A   Clear
7:54 AM 66.9 °F - 55.9 °F 68% 30.02 in 10.0 mi NW 9.2 mph - N/A   Clear
8:54 AM 70.0 °F - 57.9 °F 65% 30.05 in 10.0 mi WNW 9.2 mph - N/A   Clear
9:54 AM 73.0 °F - 57.9 °F 59% 30.04 in 10.0 mi North 6.9 mph - N/A   Clear
10:54 AM 75.0 °F - 57.9 °F 55% 30.04 in 10.0 mi Variable 3.5 mph - N/A   Clear
11:54 AM 77.0 °F - 55.0 °F 47% 30.03 in 10.0 mi NNW 9.2 mph - N/A   Partly Cloudy
12:54 PM 79.0 °F - 55.0 °F 44% 30.01 in 10.0 mi WNW 10.4 mph 18.4 mph N/A   Partly Cloudy
1:54 PM 79.0 °F - 53.1 °F 40% 30.01 in 10.0 mi NNW 17.3 mph 20.7 mph N/A   Scattered Clouds
2:54 PM 79.0 °F - 52.0 °F 39% 29.99 in 10.0 mi WNW 13.8 mph - N/A   Partly Cloudy
3:54 PM 81.0 °F 80.5 °F 54.0 °F 39% 29.97 in 10.0 mi NW 9.2 mph - N/A   Mostly Cloudy
4:54 PM 81.0 °F 80.4 °F 53.1 °F 38% 29.97 in 10.0 mi West 11.5 mph 18.4 mph N/A   Partly Cloudy
5:54 PM 78.1 °F - 52.0 °F 40% 29.98 in 10.0 mi West 11.5 mph - N/A   Clear
6:54 PM 77.0 °F - 53.1 °F 43% 29.97 in 10.0 mi West 9.2 mph - N/A   Clear
7:54 PM 75.9 °F - 54.0 °F 46% 29.98 in 10.0 mi West 8.1 mph - N/A   Clear
8:54 PM 73.0 °F - 53.1 °F 49% 29.99 in 10.0 mi West 5.8 mph - N/A   Clear
9:54 PM 72.0 °F - 53.1 °F 51% 30.00 in 10.0 mi WNW 4.6 mph - N/A   Clear
10:54 PM 70.0 °F - 53.1 °F 55% 30.01 in 10.0 mi West 3.5 mph - N/A   Clear
11:54 PM 64.9 °F - 55.0 °F 70% 30.02 in 10.0 mi Calm Calm - N/A   Clear